Date String (YYYY-MM-DD hh:mm:ss) UTC,Instrument flags,absolute air pressure of the measurement (hPa),sample flow rate (lpm),inlet stack bypass flow (lpm),air temperature of the measurement (°C),ambient temperature measured by the external sensor (°C),aerosol sample conditioner tube jacket temperature (°C),OPC LED temperature (°C),internal box temperature (°C),relative humidity of the measurement (%),span deviation,mass concentration of particles derived from Lorenz-Mie calculation of OPC scattering (μg/m³),mass concentration of particles derived from Lorenz-Mie calculation of OPC scattering (μg/m³),mass concentration of particles derived from Lorenz-Mie calculation of OPC scattering (μg/m³)
DateTimeUTC,F1_M11,P_M11,Q1_M11,Q2_M11,T1_M11,T2_M11,T3_M11,T4_M11,T5_M11,U1_M11,ZSPAN_M11,X2_M11,X0_M11,X1_M11
2023-07-29 01:00:00,SystemResetWarning,0836.5,5.02,000.00,030.2,027.4,000.0,038.3,031.0,34.4,0000.0,0005.19,0011.79,0004.05
2023-07-29 01:01:00,SystemResetWarning,0836.5,4.97,000.00,030.3,027.7,000.0,038.3,031.1,35.4,0000.0,0005.23,0011.71,0004.07
2023-07-29 01:02:00,SystemResetWarning,0836.5,5.03,000.00,030.4,026.9,000.0,038.2,031.1,35.6,0000.0,0005.28,0011.80,0004.08
2023-07-29 01:03:00,SystemResetWarning,0836.6,5.00,000.00,030.7,025.4,000.0,038.1,031.0,34.7,0000.0,0005.28,0011.74,0004.09
2023-07-29 01:04:00,SystemResetWarning,0836.6,4.97,000.00,030.8,025.0,000.0,038.0,030.9,34.9,0000.0,0005.28,0011.65,0004.12
2023-07-29 01:05:00,SystemResetWarning,0836.5,5.04,000.00,030.9,025.2,000.0,038.1,030.8,35.4,0000.0,0005.28,0011.14,0004.14
2023-07-29 01:06:00,SystemResetWarning,0836.6,4.97,000.00,031.1,025.6,000.0,038.2,030.9,35.8,0000.0,0005.26,0011.62,0004.18
2023-07-29 01:07:00,SystemResetWarning,0836.6,5.01,000.00,031.4,026.0,000.0,038.3,031.1,36.1,0000.0,0005.30,0011.72,0004.22
2023-07-29 01:08:00,SystemResetWarning,0836.6,5.02,000.00,031.8,026.5,000.0,038.4,031.3,35.2,0000.0,0005.35,0011.94,0004.25
2023-07-29 01:09:00,SystemResetWarning,0836.6,4.96,000.00,032.1,026.9,000.0,038.6,031.5,34.2,0000.0,0005.37,0011.81,0004.29
2023-07-29 01:10:00,SystemResetWarning,0836.6,5.02,000.00,032.3,027.2,000.0,038.7,031.5,34.1,0000.0,0005.39,0011.66,0004.32
2023-07-29 01:11:00,SystemResetWarning,0836.6,5.01,000.00,032.5,027.5,000.0,038.9,031.6,34.3,0000.0,0005.42,0011.53,0004.35
2023-07-29 01:12:00,SystemResetWarning,0836.6,4.99,000.00,032.6,027.6,000.0,039.1,031.6,34.1,0000.0,0005.44,0011.23,0004.39
2023-07-29 01:13:00,SystemResetWarning,0836.6,5.00,000.00,032.6,026.4,000.0,039.1,031.5,34.1,0000.0,0005.47,0011.17,0004.43
2023-07-29 01:14:00,SystemResetWarning,0836.6,5.01,000.00,032.6,025.2,000.0,039.1,031.3,34.6,0000.0,0005.54,0011.42,0004.47
2023-07-29 01:15:00,SystemResetWarning,0836.5,5.00,000.00,032.6,025.0,000.0,039.2,031.1,34.8,0000.0,0005.57,0011.64,0004.50
2023-07-29 01:16:00,SystemResetWarning,0836.5,5.01,000.00,032.4,025.3,000.0,039.3,030.9,34.5,0000.0,0005.56,0011.62,0004.52
2023-07-29 01:17:00,SystemResetWarning,0836.5,5.00,000.00,032.2,025.7,000.0,039.4,031.0,33.4,0000.0,0005.60,0011.35,0004.54
2023-07-29 01:18:00,SystemResetWarning,0836.5,5.00,000.00,032.2,026.2,000.0,039.5,031.1,34.4,0000.0,0005.65,0011.21,0004.58
2023-07-29 01:19:00,SystemResetWarning,0836.5,5.00,000.00,032.1,026.6,000.0,039.5,031.3,34.6,0000.0,0005.67,0011.15,0004.62
2023-07-29 01:20:00,SystemResetWarning,0836.6,5.01,000.00,032.1,027.0,000.0,039.6,031.3,34.8,0000.0,0005.73,0010.81,0004.65
2023-07-29 01:21:00,SystemResetWarning,0836.6,5.00,000.00,032.0,027.3,000.0,039.6,031.4,34.9,0000.0,0005.78,0010.78,0004.67
2023-07-29 01:22:00,SystemResetWarning,0836.6,5.00,000.00,032.0,027.6,000.0,039.7,031.5,34.8,0000.0,0005.74,0010.69,0004.67
2023-07-29 01:23:00,SystemResetWarning,0836.6,5.00,000.00,032.0,027.8,000.0,039.7,031.6,34.5,0000.0,0005.73,0010.75,0004.65
2023-07-29 01:24:00,SystemResetWarning,0836.5,4.97,000.00,032.0,026.8,000.0,039.6,031.4,34.9,0000.0,0005.73,0011.02,0004.63
2023-07-29 01:25:00,SystemResetWarning,0836.5,5.03,000.00,032.0,025.3,000.0,039.5,031.2,35.1,0000.0,0005.66,0010.74,0004.61
2023-07-29 01:26:00,SystemResetWarning,0836.6,4.99,000.00,032.1,024.9,000.0,039.3,031.2,34.4,0000.0,0005.61,0010.39,0004.59
2023-07-29 01:27:00,SystemResetWarning,0836.6,5.00,000.00,032.0,025.2,000.0,039.4,031.0,34.6,0000.0,0005.61,0010.80,0004.57
2023-07-29 01:28:00,SystemResetWarning,0836.6,5.02,000.00,031.9,025.6,000.0,039.4,031.1,34.3,0000.0,0005.65,0011.17,0004.55
2023-07-29 01:29:00,SystemResetWarning,0836.6,4.98,000.00,031.8,026.0,000.0,039.4,031.1,33.9,0000.0,0005.64,0011.13,0004.54
2023-07-29 01:30:00,SystemResetWarning,0836.7,5.01,000.00,031.8,026.5,000.0,039.5,031.2,33.7,0000.0,0005.59,0011.09,0004.50
2023-07-29 01:31:00,SystemResetWarning,0836.8,5.01,000.00,031.8,026.9,000.0,039.5,031.3,33.3,0000.0,0005.52,0011.26,0004.49
2023-07-29 01:32:00,SystemResetWarning,0836.8,5.00,000.00,031.8,027.2,000.0,039.5,031.4,34.7,0000.0,0005.47,0011.65,0004.50
2023-07-29 01:33:00,SystemResetWarning,0836.8,5.00,000.00,031.7,027.5,000.0,039.5,031.5,34.7,0000.0,0005.55,0011.70,0004.54
2023-07-29 01:34:00,SystemResetWarning,0836.8,5.00,000.00,031.7,027.8,000.0,039.6,031.5,34.6,0000.0,0005.57,0011.62,0004.55
2023-07-29 01:35:00,SystemResetWarning,0836.9,5.00,000.00,031.7,027.8,000.0,039.5,031.6,34.8,0000.0,0005.59,0011.35,0004.59
2023-07-29 01:36:00,SystemResetWarning,0836.8,4.98,000.00,031.7,026.4,000.0,039.4,031.3,34.6,0000.0,0005.65,0011.47,0004.61
2023-07-29 01:37:00,SystemResetWarning,0836.8,5.01,000.00,031.6,025.1,000.0,039.3,031.1,34.5,0000.0,0005.69,0011.58,0004.61
2023-07-29 01:38:00,SystemResetWarning,0836.8,5.01,000.00,031.5,024.9,000.0,039.2,030.9,34.7,0000.0,0005.74,0011.41,0004.60
2023-07-29 01:39:00,SystemResetWarning,0836.9,5.00,000.00,031.3,025.2,000.0,039.2,030.7,34.6,0000.0,0005.72,0011.15,0004.59
2023-07-29 01:40:00,SystemResetWarning,0836.9,4.98,000.00,031.1,025.7,000.0,039.2,030.9,35.0,0000.0,0005.75,0011.85,0004.56
2023-07-29 01:41:00,SystemResetWarning,0836.9,5.02,000.00,031.2,026.2,000.0,039.2,031.0,34.6,0000.0,0005.76,0013.00,0004.53
2023-07-29 01:42:00,SystemResetWarning,0837.0,4.98,000.00,031.2,026.6,000.0,039.2,031.2,34.5,0000.0,0005.80,0013.29,0004.52
2023-07-29 01:43:00,SystemResetWarning,0837.1,5.02,000.00,031.2,027.0,000.0,039.2,031.2,34.2,0000.0,0005.86,0013.30,0004.47
2023-07-29 01:44:00,SystemResetWarning,0837.1,5.00,000.00,031.2,027.3,000.0,039.2,031.3,34.1,0000.0,0005.82,0013.70,0004.41
2023-07-29 01:45:00,SystemResetWarning,0837.1,5.00,000.00,031.2,027.6,000.0,039.2,031.4,34.0,0000.0,0005.78,0013.80,0004.36
2023-07-29 01:46:00,SystemResetWarning,0837.2,5.00,000.00,031.2,027.8,000.0,039.2,031.4,33.6,0000.0,0005.79,0014.67,0004.32
2023-07-29 01:47:00,SystemResetWarning,0837.2,4.99,000.00,031.2,027.5,000.0,039.2,031.4,33.8,0000.0,0005.79,0015.41,0004.29
2023-07-29 01:48:00,SystemResetWarning,0837.2,4.99,000.00,031.2,026.1,000.0,039.0,031.3,33.8,0000.0,0005.83,0015.86,0004.27
2023-07-29 01:49:00,SystemResetWarning,0837.2,5.01,000.00,031.1,025.6,000.0,038.9,031.1,33.2,0000.0,0005.89,0016.64,0004.26
2023-07-29 01:50:00,SystemResetWarning,0837.2,5.01,000.00,031.0,025.7,000.0,039.0,030.8,33.3,0000.0,0005.89,0016.91,0004.27
2023-07-29 01:51:00,SystemResetWarning,0837.2,4.99,000.00,030.8,026.1,000.0,039.0,030.9,32.7,0000.0,0005.89,0017.05,0004.27
2023-07-29 01:52:00,SystemResetWarning,0837.2,5.01,000.00,030.8,026.5,000.0,039.0,031.0,32.5,0000.0,0005.90,0015.61,0004.29
2023-07-29 01:53:00,SystemResetWarning,0837.4,5.00,000.00,030.8,026.9,000.0,039.0,031.1,32.4,0000.0,0005.88,0015.34,0004.28
2023-07-29 01:54:00,SystemResetWarning,0837.4,5.00,000.00,030.7,027.2,000.0,039.0,031.2,32.2,0000.0,0005.86,0015.09,0004.28
2023-07-29 01:55:00,SystemResetWarning,0837.5,5.00,000.00,030.7,027.5,000.0,039.0,031.3,32.4,0000.0,0005.85,0014.91,0004.29
2023-07-29 01:56:00,SystemResetWarning,0837.5,5.00,000.00,030.7,027.8,000.0,039.0,031.3,33.2,0000.0,0005.88,0015.54,0004.30
2023-07-29 01:57:00,SystemResetWarning,0837.6,4.98,000.00,030.7,027.6,000.0,038.9,031.3,33.8,0000.0,0005.83,0015.50,0004.31
2023-07-29 01:58:00,SystemResetWarning,0837.5,5.00,000.00,030.7,026.0,000.0,038.7,031.2,33.8,0000.0,0005.78,0014.57,0004.30
2023-07-29 01:59:00,SystemResetWarning,0837.5,5.00,000.00,030.6,024.9,000.0,038.6,031.0,33.7,0000.0,0005.76,0014.62,0004.30
